Home   Weather   Birmingham   Past weeks

Flag for United Kingdom Past Weather in Birmingham, England, United Kingdom — Yesterday and Last 2 Weeks

Now
37 °F

Passing clouds.


Feels Like: 32 °F
Forecast: N/A
Wind: 7 mph from East

Location: Birmingham / Airport

Current Time: Jan 21, 2017 at 7:38:15 pm

Latest Report: Jan 21, 2017 at 6:50 pm


Visibility: 6 mi

Pressure: 30.27 "Hg

Humidity: 100%

Dew Point: 37 °F

Location of BirminghamLocation

Past Weather in Birmingham — Graph

°F

Birmingham Temperature Yesterday

Maximum temperature yesterday: 43 °F (at 1:50 pm)
Minimum temperature yesterday: 32 °F (at 5:50 am)
Average temperature yesterday: 36 °F

High & Low Weather Summary for the Past Weeks

 TemperatureHumidityPressure
High52 °F (Jan 11, 5:20 am)100% (Jan 6, 6:20 pm)30.66 "Hg (Jan 6, 6:20 pm)
Low28 °F (Jan 21, 6:20 am)53% (Jan 11, 2:20 pm)29.42 "Hg (Jan 12, 5:50 pm)
Average42 °F94%30.22 "Hg
* Reported Jan 6 6:20 pm — Jan 21 6:20 pm, Birmingham, Weather by CustomWeather, © 2017

Note: Actual official high and low records may vary slightly from our data, if they occured in-between our weather recording intervals... More about our weather records

Advertising

Birmingham Weather History for the Previous 24 Hours

Scroll right to see more
 ConditionsComfort  
Time TempWeatherWind HumidityBarometerVisibility
6:20 pm
Sat, Jan 21
37 °FPartly cloudy.7 mph100%30.27 "Hg5 mi
5:50 pm37 °FPartly cloudy.8 mph93%30.27 "Hg6 mi
5:20 pm37 °FPartly cloudy.6 mph93%30.27 "Hg6 mi
4:50 pm37 °FPartly cloudy.8 mph100%30.27 "Hg6 mi
4:20 pm37 °FScattered clouds.8 mph100%30.27 "HgN/A
3:50 pm37 °FScattered clouds.8 mph100%30.27 "HgN/A
3:20 pm37 °FPartly sunny.7 mph100%30.30 "Hg6 mi
2:50 pm37 °FPartly sunny.8 mph93%30.30 "HgN/A
2:20 pm37 °FPartly sunny.8 mph93%30.30 "Hg6 mi
1:50 pm37 °FPartly sunny.9 mph93%30.30 "HgN/A
1:20 pm37 °FMostly cloudy.10 mph100%30.33 "HgN/A
12:50 pm37 °FPartly sunny.10 mph100%30.33 "HgN/A
12:20 pm37 °FPartly sunny.10 mph100%30.33 "HgN/A
11:50 am36 °FLow clouds.9 mph100%30.36 "Hg4 mi
11:20 am36 °FFog.9 mph100%30.36 "Hg3 mi
10:50 am36 °FFog.7 mph100%30.39 "Hg1 mi
10:20 am36 °FFog.6 mph100%30.39 "Hg0 mi
9:50 am34 °FFog.7 mph100%30.39 "Hg0 mi
9:20 am34 °FFog.6 mph100%30.39 "Hg0 mi
8:50 am32 °FFog.6 mph100%30.39 "Hg0 mi
8:20 am32 °FFog.5 mph100%30.39 "Hg0 mi
7:50 am32 °FFog.6 mph100%30.39 "Hg1 mi
7:20 am30 °FClear.5 mph100%30.39 "Hg5 mi
6:50 am28 °FClear.2 mph100%30.39 "Hg6 mi
6:20 am28 °FClear.2 mph100%30.39 "Hg6 mi
5:50 am30 °FClear.2 mph100%30.39 "Hg6 mi
5:20 am30 °FClear.2 mph100%30.39 "Hg10 mi
4:50 am30 °FClear.3 mph100%30.42 "Hg10 mi
4:20 am30 °FClear.2 mph100%30.42 "Hg10 mi
3:50 am30 °FClear.3 mph100%30.42 "Hg10 mi
3:20 am30 °FClear.2 mph100%30.42 "Hg10 mi
2:50 am30 °FClear.2 mph100%30.42 "Hg10 mi
2:20 am30 °FClear.3 mph100%30.45 "Hg10 mi
1:50 am30 °FClear.3 mph100%30.45 "Hg10 mi
1:20 am30 °FClear.3 mph100%30.45 "Hg10 mi
12:50 am32 °FClear.2 mph93%30.45 "Hg10 mi
12:20 am32 °FClear.5 mph100%30.45 "Hg10 mi
11:50 pm
Fri, Jan 20
32 °FClear.2 mph100%30.45 "Hg10 mi
11:20 pm34 °FPassing clouds.5 mph93%30.48 "HgN/A
10:50 pm34 °FClear.6 mph93%30.48 "Hg10 mi
10:20 pm34 °FPassing clouds.5 mph93%30.48 "HgN/A
9:50 pm36 °FPassing clouds.5 mph87%30.48 "HgN/A
9:20 pm36 °FClear.7 mph93%30.48 "Hg10 mi
8:50 pm36 °FClear.7 mph93%30.48 "Hg10 mi
8:20 pm36 °FPassing clouds.6 mph93%30.48 "HgN/A
7:50 pm36 °FClear.5 mph93%30.48 "Hg10 mi
7:20 pm36 °FClear.5 mph87%30.48 "Hg10 mi
Weather by CustomWeather, © 2017

See weather overviewHow to use our weather pages